Time,TemperatureF,DewpointF,PressureIn,WindDirection,WindDirectionDegrees,WindSpeedMPH,WindSpeedGustMPH,Humidity,HourlyPrecipIn,Conditions,Clouds,dailyrainin,SoftwareType,DateUTC
2013-08-13 00:09:00,60.1,59.0,29.89,SSW,212,0.0,0.0,95,0.00,,,0.00,weatherlink.com 1.10,2013-08-13 04:09:00,
2013-08-13 00:24:00,60.0,59.0,29.89,SSW,208,0.0,1.0,95,0.00,,,0.00,weatherlink.com 1.10,2013-08-13 04:24:00,
2013-08-13 00:39:00,59.7,58.0,29.89,SSW,211,0.0,1.0,95,0.00,,,0.00,weatherlink.com 1.10,2013-08-13 04:39:00,
2013-08-13 00:54:00,59.3,58.0,29.88,SSW,210,0.0,0.0,95,0.00,,,0.00,weatherlink.com 1.10,2013-08-13 04:54:00,
2013-08-13 01:09:00,59.3,58.0,29.89,SSW,210,0.0,0.0,95,0.00,,,0.00,weatherlink.com 1.10,2013-08-13 05:09:00,
2013-08-13 01:24:00,59.1,58.0,29.88,SSW,211,0.0,1.0,95,0.00,,,0.00,weatherlink.com 1.10,2013-08-13 05:24:00,
2013-08-13 01:39:00,58.9,58.0,29.88,SSW,211,0.0,0.0,96,0.00,,,0.00,weatherlink.com 1.10,2013-08-13 05:39:00,
2013-08-13 01:54:00,58.8,58.0,29.88,SSW,211,0.0,0.0,96,0.00,,,0.00,weatherlink.com 1.10,2013-08-13 05:54:00,
2013-08-13 02:09:00,58.6,58.0,29.87,SSW,211,0.0,0.0,96,0.00,,,0.00,weatherlink.com 1.10,2013-08-13 06:09:00,
2013-08-13 02:24:00,58.4,57.0,29.87,SSW,211,0.0,0.0,96,0.00,,,0.00,weatherlink.com 1.10,2013-08-13 06:24:00,
2013-08-13 02:39:00,58.3,57.0,29.87,SSW,211,0.0,0.0,96,0.00,,,0.00,weatherlink.com 1.10,2013-08-13 06:39:00,
2013-08-13 02:54:00,58.2,57.0,29.86,SSW,211,0.0,0.0,96,0.00,,,0.00,weatherlink.com 1.10,2013-08-13 06:54:00,
2013-08-13 03:09:00,57.9,57.0,29.86,SSW,212,0.0,1.0,96,0.00,,,0.00,weatherlink.com 1.10,2013-08-13 07:09:00,
2013-08-13 03:24:00,57.6,57.0,29.85,SSW,212,0.0,0.0,96,0.00,,,0.00,weatherlink.com 1.10,2013-08-13 07:24:00,
2013-08-13 03:39:00,57.5,56.0,29.85,SSW,212,0.0,1.0,96,0.00,,,0.00,weatherlink.com 1.10,2013-08-13 07:39:00,
2013-08-13 03:55:00,57.5,56.0,29.85,SSW,212,0.0,0.0,96,0.00,,,0.00,weatherlink.com 1.10,2013-08-13 07:55:00,
2013-08-13 04:10:00,57.6,57.0,29.85,SSW,210,0.0,0.0,96,0.00,,,0.00,weatherlink.com 1.10,2013-08-13 08:10:00,
2013-08-13 04:25:00,57.3,56.0,29.85,SSW,210,0.0,0.0,96,0.00,,,0.00,weatherlink.com 1.10,2013-08-13 08:25:00,
2013-08-13 04:40:00,57.5,57.0,29.85,SW,219,0.0,1.0,97,0.00,,,0.00,weatherlink.com 1.10,2013-08-13 08:40:00,
2013-08-13 04:55:00,57.7,57.0,29.85,SW,218,0.0,1.0,96,0.00,,,0.00,weatherlink.com 1.10,2013-08-13 08:55:00,
2013-08-13 05:10:00,57.9,57.0,29.85,SW,218,0.0,1.0,96,0.00,,,0.00,weatherlink.com 1.10,2013-08-13 09:10:00,
2013-08-13 05:25:00,57.5,56.0,29.85,SW,218,0.0,0.0,96,0.00,,,0.00,weatherlink.com 1.10,2013-08-13 09:25:00,
2013-08-13 05:40:00,57.3,56.0,29.85,SW,218,0.0,0.0,96,0.00,,,0.00,weatherlink.com 1.10,2013-08-13 09:40:00,
2013-08-13 05:55:00,57.1,56.0,29.85,SW,218,0.0,0.0,96,0.00,,,0.00,weatherlink.com 1.10,2013-08-13 09:55:00,
2013-08-13 06:10:00,57.1,56.0,29.84,SW,218,0.0,0.0,96,0.00,,,0.00,weatherlink.com 1.10,2013-08-13 10:10:00,
2013-08-13 06:25:00,57.2,56.0,29.85,SW,218,0.0,0.0,96,0.00,,,0.00,weatherlink.com 1.10,2013-08-13 10:25:00,
2013-08-13 06:40:00,57.9,57.0,29.85,SW,218,0.0,0.0,97,0.00,,,0.00,weatherlink.com 1.10,2013-08-13 10:40:00,
2013-08-13 06:55:00,58.8,58.0,29.84,SW,219,0.0,0.0,97,0.00,,,0.00,weatherlink.com 1.10,2013-08-13 10:55:00,
2013-08-13 07:10:00,59.6,59.0,29.84,SE,145,0.0,2.0,97,0.00,,,0.00,weatherlink.com 1.10,2013-08-13 11:10:00,
2013-08-13 07:25:00,59.8,59.0,29.84,NNE,20,0.0,2.0,97,0.00,,,0.00,weatherlink.com 1.10,2013-08-13 11:25:00,
2013-08-13 07:40:00,60.8,60.0,29.84,ENE,61,1.0,1.0,97,0.00,,,0.00,weatherlink.com 1.10,2013-08-13 11:40:00,
2013-08-13 07:55:00,61.9,61.0,29.84,ENE,59,0.0,1.0,97,0.00,,,0.00,weatherlink.com 1.10,2013-08-13 11:55:00,
2013-08-13 08:10:00,63.3,63.0,29.84,SSW,194,0.0,1.0,97,0.00,,,0.00,weatherlink.com 1.10,2013-08-13 12:10:00,
2013-08-13 08:25:00,64.7,64.0,29.84,SSE,157,0.0,2.0,97,0.00,,,0.00,weatherlink.com 1.10,2013-08-13 12:25:00,
2013-08-13 08:40:00,66.0,65.0,29.83,SSE,152,3.0,4.0,95,0.00,,,0.00,weatherlink.com 1.10,2013-08-13 12:40:00,
2013-08-13 08:55:00,67.1,65.0,29.83,SE,145,3.0,7.0,93,0.00,,,0.00,weatherlink.com 1.10,2013-08-13 12:55:00,
2013-08-13 09:10:00,67.3,65.0,29.83,SSE,151,7.0,8.0,93,0.00,,,0.00,weatherlink.com 1.10,2013-08-13 13:10:00,
2013-08-13 09:25:00,67.2,65.0,29.82,SSE,150,5.0,10.0,93,0.00,,,0.00,weatherlink.com 1.10,2013-08-13 13:25:00,
2013-08-13 09:40:00,66.8,65.0,29.82,SSE,148,7.0,8.0,94,0.00,,,0.00,weatherlink.com 1.10,2013-08-13 13:40:00,
2013-08-13 09:55:00,66.3,65.0,29.82,SSE,165,4.0,7.0,95,0.00,,,0.00,weatherlink.com 1.10,2013-08-13 13:55:00,
2013-08-13 10:10:00,67.1,65.0,29.82,SSE,156,5.0,8.0,94,0.00,,,0.00,weatherlink.com 1.10,2013-08-13 14:10:00,
2013-08-13 10:25:00,67.1,65.0,29.81,SE,141,5.0,6.0,94,0.00,,,0.00,weatherlink.com 1.10,2013-08-13 14:25:00,
2013-08-13 10:40:00,68.6,66.0,29.81,SSE,150,8.0,12.0,90,0.00,,,0.00,weatherlink.com 1.10,2013-08-13 14:40:00,
2013-08-13 10:55:00,68.0,65.0,29.81,SSE,148,7.0,12.0,91,0.00,,,0.00,weatherlink.com 1.10,2013-08-13 14:55:00,
2013-08-13 11:10:00,68.1,66.0,29.82,SE,132,8.0,11.0,92,0.00,,,0.00,weatherlink.com 1.10,2013-08-13 15:10:00,
2013-08-13 11:25:00,67.6,66.0,29.82,SSE,153,6.0,11.0,93,0.00,,,0.00,weatherlink.com 1.10,2013-08-13 15:25:00,
2013-08-13 11:40:00,67.2,65.0,29.82,SSE,150,8.0,10.0,93,0.00,,,0.00,weatherlink.com 1.10,2013-08-13 15:40:00,
2013-08-13 11:55:00,66.4,65.0,29.82,SSE,153,7.0,12.0,94,0.00,,,0.00,weatherlink.com 1.10,2013-08-13 15:55:00,
2013-08-13 12:10:00,65.6,64.0,29.82,SE,131,7.0,12.0,95,0.00,,,0.00,weatherlink.com 1.10,2013-08-13 16:10:00,
2013-08-13 12:25:00,65.9,65.0,29.81,ESE,113,8.0,16.0,96,0.00,,,0.00,weatherlink.com 1.10,2013-08-13 16:25:00,
2013-08-13 12:40:00,65.6,65.0,29.81,SSE,156,7.0,13.0,97,0.00,,,0.00,weatherlink.com 1.10,2013-08-13 16:40:00,
2013-08-13 12:55:00,65.6,65.0,29.80,SE,127,8.0,10.0,97,0.00,,,0.00,weatherlink.com 1.10,2013-08-13 16:55:00,
2013-08-13 13:25:00,65.6,65.0,29.80,SSE,150,6.0,12.0,96,0.00,,,0.00,weatherlink.com 1.10,2013-08-13 17:25:00,
2013-08-13 13:40:00,65.3,65.0,29.80,SSE,149,5.0,9.0,97,0.00,,,0.00,weatherlink.com 1.10,2013-08-13 17:40:00,
2013-08-13 13:55:00,65.3,65.0,29.80,SSE,152,4.0,8.0,97,0.00,,,0.00,weatherlink.com 1.10,2013-08-13 17:55:00,
2013-08-13 14:10:00,65.5,65.0,29.80,SSE,149,11.0,11.0,97,0.00,,,0.00,weatherlink.com 1.10,2013-08-13 18:10:00,
2013-08-13 14:26:00,65.5,64.0,29.80,SSE,152,7.0,11.0,96,0.00,,,0.00,weatherlink.com 1.10,2013-08-13 18:26:00,
2013-08-13 14:41:00,65.2,64.0,29.79,SSE,152,5.0,9.0,96,0.00,,,0.00,weatherlink.com 1.10,2013-08-13 18:41:00,
2013-08-13 14:56:00,65.5,64.0,29.78,SSE,149,6.0,9.0,96,0.00,,,0.00,weatherlink.com 1.10,2013-08-13 18:56:00,
2013-08-13 15:11:00,65.9,65.0,29.77,SSE,162,2.0,7.0,96,0.00,,,0.00,weatherlink.com 1.10,2013-08-13 19:11:00,
2013-08-13 15:26:00,66.6,65.0,29.76,SSE,149,4.0,5.0,94,0.00,,,0.00,weatherlink.com 1.10,2013-08-13 19:26:00,
2013-08-13 15:41:00,67.3,65.0,29.76,SSE,162,6.0,7.0,91,0.00,,,0.00,weatherlink.com 1.10,2013-08-13 19:41:00,
2013-08-13 15:56:00,66.8,65.0,29.75,SSE,153,4.0,6.0,93,0.00,,,0.00,weatherlink.com 1.10,2013-08-13 19:56:00,
2013-08-13 16:11:00,66.5,65.0,29.75,SSE,156,5.0,7.0,93,0.00,,,0.00,weatherlink.com 1.10,2013-08-13 20:11:00,
2013-08-13 16:26:00,66.6,65.0,29.75,SSE,163,5.0,8.0,94,0.00,,,0.00,weatherlink.com 1.10,2013-08-13 20:26:00,
2013-08-13 16:41:00,65.8,64.0,29.74,SSE,166,2.0,6.0,95,0.00,,,0.00,weatherlink.com 1.10,2013-08-13 20:41:00,
2013-08-13 16:56:00,66.1,65.0,29.73,South,174,2.0,3.0,96,0.00,,,0.00,weatherlink.com 1.10,2013-08-13 20:56:00,
2013-08-13 17:11:00,66.1,65.0,29.73,South,170,0.0,3.0,95,0.00,,,0.00,weatherlink.com 1.10,2013-08-13 21:11:00,
2013-08-13 17:26:00,66.4,65.0,29.73,South,173,0.0,2.0,95,0.00,,,0.00,weatherlink.com 1.10,2013-08-13 21:26:00,
2013-08-13 17:41:00,66.6,65.0,29.72,South,170,0.0,1.0,95,0.00,,,0.00,weatherlink.com 1.10,2013-08-13 21:41:00,
2013-08-13 18:11:00,66.9,65.0,29.71,South,172,0.0,1.0,94,0.00,,,0.00,weatherlink.com 1.10,2013-08-13 22:11:00,
2013-08-13 18:26:00,66.1,64.0,29.70,South,174,0.0,2.0,94,0.00,,,0.00,weatherlink.com 1.10,2013-08-13 22:26:00,
2013-08-13 18:41:00,65.6,64.0,29.70,SSE,167,1.0,2.0,94,0.00,,,0.00,weatherlink.com 1.10,2013-08-13 22:41:00,
2013-08-13 18:56:00,66.2,65.0,29.70,South,174,0.0,3.0,95,0.00,,,0.00,weatherlink.com 1.10,2013-08-13 22:56:00,
2013-08-13 19:11:00,66.0,65.0,29.70,SSE,160,3.0,3.0,95,0.00,,,0.00,weatherlink.com 1.10,2013-08-13 23:11:00,
2013-08-13 19:26:00,65.6,64.0,29.70,SSE,166,2.0,4.0,95,0.00,,,0.00,weatherlink.com 1.10,2013-08-13 23:26:00,
2013-08-13 19:41:00,65.4,64.0,29.70,SSE,155,3.0,6.0,96,0.00,,,0.00,weatherlink.com 1.10,2013-08-13 23:41:00,
2013-08-13 19:56:00,65.2,64.0,29.70,SSE,153,4.0,6.0,97,0.00,,,0.00,weatherlink.com 1.10,2013-08-13 23:56:00,
2013-08-13 20:11:00,65.2,64.0,29.70,ESE,108,3.0,3.0,97,0.00,,,0.00,weatherlink.com 1.10,2013-08-14 00:11:00,
2013-08-13 20:26:00,65.1,64.0,29.70,SE,136,2.0,5.0,97,0.00,,,0.00,weatherlink.com 1.10,2013-08-14 00:26:00,
2013-08-13 20:41:00,65.0,64.0,29.70,SSE,162,0.0,3.0,97,0.00,,,0.00,weatherlink.com 1.10,2013-08-14 00:41:00,
2013-08-13 20:56:00,64.9,64.0,29.71,South,172,0.0,3.0,97,0.00,,,0.00,weatherlink.com 1.10,2013-08-14 00:56:00,
2013-08-13 21:11:00,64.9,64.0,29.71,South,172,0.0,0.0,97,0.00,,,0.00,weatherlink.com 1.10,2013-08-14 01:11:00,
2013-08-13 21:26:00,64.9,64.0,29.70,SSE,167,0.0,1.0,98,0.00,,,0.00,weatherlink.com 1.10,2013-08-14 01:26:00,
2013-08-13 21:41:00,64.8,64.0,29.70,SSE,150,1.0,1.0,98,0.00,,,0.00,weatherlink.com 1.10,2013-08-14 01:41:00,
2013-08-13 21:56:00,64.7,64.0,29.70,SSE,159,0.0,1.0,98,0.00,,,0.00,weatherlink.com 1.10,2013-08-14 01:56:00,
2013-08-13 22:11:00,64.6,64.0,29.69,East,81,2.0,2.0,98,0.00,,,0.00,weatherlink.com 1.10,2013-08-14 02:11:00,
2013-08-13 22:26:00,64.4,64.0,29.68,South,170,0.0,2.0,98,0.00,,,0.00,weatherlink.com 1.10,2013-08-14 02:26:00,
2013-08-13 22:41:00,64.2,64.0,29.69,South,177,0.0,1.0,98,0.00,,,0.00,weatherlink.com 1.10,2013-08-14 02:41:00,
2013-08-13 22:56:00,64.1,64.0,29.69,SE,132,2.0,3.0,98,0.00,,,0.00,weatherlink.com 1.10,2013-08-14 02:56:00,
2013-08-13 23:11:00,63.9,63.0,29.70,SSE,167,2.0,3.0,98,0.00,,,0.00,weatherlink.com 1.10,2013-08-14 03:11:00,
2013-08-13 23:26:00,63.6,63.0,29.69,SE,131,2.0,3.0,98,0.00,,,0.00,weatherlink.com 1.10,2013-08-14 03:26:00,
2013-08-13 23:41:00,63.4,63.0,29.69,SE,145,1.0,2.0,98,0.00,,,0.00,weatherlink.com 1.10,2013-08-14 03:41:00,
2013-08-13 23:56:00,63.3,63.0,29.69,SSE,149,0.0,2.0,98,0.00,,,0.00,weatherlink.com 1.10,2013-08-14 03:56:00,